sat.trackr.live / text

‹ back to catalog

STARLINK-36515

NORAD 67430 · 2026-005AC

PAYLOAD ACTIVE UNKNOWN

§ Identity

Operator
Country
US
Launch date
2026-01-12
Launch site
AFETR
Launch vehicle
Mass (kg)
RCS (m²)

Purposes: comms

External: N2YO · Heavens-Above · Gunter

§ Orbital elements

Epoch: 2026-05-25T01:17:35.155104Z

Period
94.27 min
Inclination
43.0016°
Eccentricity
0.0001362
Mean motion
15.27593895 rev/d
Perigee alt
482.1 km
Apogee alt
483.9 km
Semi-major
6,861.1 km
B*
5.6358e-4
RAAN
166.8695°
Arg perigee
267.6668°
Mean anomaly
92.4027°
Rev number
2,036

§ Raw data

STARLINK-365151 67430U 26005AC  26145.05387911  .00015285  00000+0  56358-3 0  99952 67430  43.0016 166.8695 0001362 267.6668  92.4027 15.27593895 20369

JSON: /api/v1/satellites/67430 · /tle

For live sub-satellite position, see the globe view (requires WebGL).

§ Visibility from observer

Set your observer location to see the next 7 days of passes ≥ 10°. The values pass through the URL so the page stays shareable.

No JS? Fill the form by hand. The geolocation button needs JavaScript.